Location: Hermaringen
(48.5952°N, 10.2585°E)
Time: 03:44:57
(UTC+00:00)

S-56A Canister/Altair - Pass Details

Date: 19 February 2026
Orbit: 633 x 2484 km, 38.9° (Epoch: 11 March)

Event Time Altitude Azimuth Distance (km) Brightness Sun altitude
Exits shadow 02:22:23 30° 151° (SSE) 2,718 10.1 -38.8°
Drops below altitude 10° 02:28:42 10° 129° (SE) 4,407 11.5 -37.9°
Sets 02:33:04 0° 123° (ESE) 5,664 12.3 -37.2°
